logo tempoitalia

Diretta Meteo Cairo, Egittolunedì 31 agosto ore 07:30

Mappa
Sereno 25 °C Nuvoloso 24 Ore: T.min 25 T.max 34
Ponente Nord Km/h 13 Punto di rugiada: 20 °C Umidità: 73% Visibilità: 6 Km
Il sole sorge alle: 06:30 Il sole tramonta alle: 19:18
31 Agosto 2026 07:30 tempo osservato: Nuvoloso Nuvoloso 25 73 1011 vento: Nord N 13
31 Agosto 2026 07:00 tempo osservato: Nuvoloso Nuvoloso 25 73 1011 vento: Nord N/NO 13
31 Agosto 2026 06:30 tempo osservato: Nuvoloso Nuvoloso 25 73 1010 vento: Nord N 13
31 Agosto 2026 06:00 tempo osservato: Nuvoloso Nuvoloso 25 73 1010 vento: Nord N/NO 13
31 Agosto 2026 05:30 tempo osservato: Nuvoloso Nuvoloso 25 78 1010 vento: Nord N/NO 11.1
31 Agosto 2026 05:00 tempo osservato: Nuvoloso Nuvoloso 25 73 1010 vento: Nord N 13
31 Agosto 2026 04:30 tempo osservato: Nuvoloso Nuvoloso 25 73 1011 vento: Nord N 9.3
31 Agosto 2026 04:00 tempo osservato: Nuvoloso Nuvoloso 25 73 1010 vento: Nord N/NO 13
31 Agosto 2026 03:30 tempo osservato: Sereno Sereno 25 73 1010 vento: Nord N 14.8
31 Agosto 2026 03:00 tempo osservato: Sereno Sereno 25 78 1010 vento: Nord N/NO 14.8
31 Agosto 2026 02:30 tempo osservato: Sereno Sereno 26 73 1010 vento: Nord NO 14.8
31 Agosto 2026 02:00 tempo osservato: Sereno Sereno 26 69 1011 vento: Nord O/NO 13
31 Agosto 2026 01:30 tempo osservato: Sereno Sereno 26 65 1011 vento: Nord N/NO 7.4
31 Agosto 2026 01:00 tempo osservato: Sereno Sereno 26 65 1011 vento: Nord N 9.3
31 Agosto 2026 00:30 tempo osservato: Sereno Sereno 26 69 1011 vento: Nord N/NO 11.1
31 Agosto 2026 00:00 tempo osservato: Sereno Sereno 27 61 1011 vento: Nord N 14.8
30 Agosto 2026 23:30 tempo osservato: Sereno Sereno 27 61 1011 vento: Nord N 18.5
30 Agosto 2026 23:00 tempo osservato: Sereno Sereno 28 58 1011 vento: Nord N 22.2
30 Agosto 2026 22:30 tempo osservato: Sereno Sereno 28 58 1011 vento: Nord N/NO 20.3
30 Agosto 2026 22:00 tempo osservato: Sereno Sereno 29 51 1010 vento: Nord N 18.5
30 Agosto 2026 21:30 tempo osservato: Sereno Sereno 29 51 1010 vento: Nord N 22.2
30 Agosto 2026 21:00 tempo osservato: Sereno Sereno 30 45 1010 vento: Nord N/NO 22.2
30 Agosto 2026 20:30 tempo osservato: Sereno Sereno 30 45 1009 vento: Nord N 25.9
30 Agosto 2026 20:00 tempo osservato: Sereno Sereno 31 40 1009 vento: Nord N 25.9
30 Agosto 2026 19:30 tempo osservato: Sereno Sereno 32 33 1009 vento: Nord N 20.3
30 Agosto 2026 19:00 tempo osservato: Sereno Sereno 32 33 1009 vento: Nord N 20.3
30 Agosto 2026 18:30 tempo osservato: Nuvoloso Nuvoloso 33 29 1009 vento: Nord N 24
30 Agosto 2026 18:00 tempo osservato: Nuvoloso Nuvoloso 33 27 1009 vento: Nord N/NO 20.3
30 Agosto 2026 17:30 tempo osservato: Nuvoloso Nuvoloso 33 26 1009 vento: Nord N/NO 18.5
30 Agosto 2026 17:00 tempo osservato: Nuvoloso Nuvoloso 34 26 1009 vento: Nord N 22.2
30 Agosto 2026 16:30 tempo osservato: Nuvoloso Nuvoloso 34 26 1009 vento: Nord NO 16.7
30 Agosto 2026 16:00 tempo osservato: Nuvoloso Nuvoloso 33 27 1009 vento: Nord N 14.8
30 Agosto 2026 15:30 tempo osservato: Poco Nuvoloso Poco Nuvoloso 33 29 1009 vento: Nord N/NO 18.5
30 Agosto 2026 15:00 tempo osservato: Poco Nuvoloso Poco Nuvoloso 34 28 1009 vento: Nord N 16.7
30 Agosto 2026 14:30 tempo osservato: Poco Nuvoloso Poco Nuvoloso 33 29 1009 vento: Nord N/NO 14.8
30 Agosto 2026 14:00 tempo osservato: Sereno Sereno 31 37 1010 vento: Nord N/NO 16.7
30 Agosto 2026 13:30 tempo osservato: Sereno Sereno 30 40 1010 vento: Nord N 20.3
30 Agosto 2026 13:00 tempo osservato: Sereno Sereno 30 42 1010 vento: Nord N 16.7
30 Agosto 2026 12:30 tempo osservato: Sereno Sereno 31 35 1010 vento: Nord N/NO 14.8
30 Agosto 2026 12:00 tempo osservato: Sereno Sereno 30 40 1010 vento: Nord N/NO 20.3
30 Agosto 2026 11:30 tempo osservato: Sereno Sereno 29 45 1010 vento: Nord N 18.5
30 Agosto 2026 11:00 tempo osservato: Sereno Sereno 29 48 1010 vento: Nord N 14.8
30 Agosto 2026 10:30 tempo osservato: Sereno Sereno 28 51 1010 vento: Nord N 9.3
30 Agosto 2026 10:00 tempo osservato: Sereno Sereno 27 57 1010 vento: Nord N/NO 14.8
30 Agosto 2026 09:30 tempo osservato: Sereno Sereno 27 57 1010 vento: Nord N/NO 18.5
30 Agosto 2026 09:00 tempo osservato: Sereno Sereno 26 61 1010 vento: Nord N 14.8
30 Agosto 2026 08:30 tempo osservato: Sereno Sereno 26 65 1010 vento: Nord N/NO 13
30 Agosto 2026 08:00 tempo osservato: Sereno Sereno 25 65 1010 vento: Nord N/NO 16.7